Change the Weather History Date:

Thursday, June 27, 2013

  Actual Average Record
Temperature  
Mean Temperature 54 °F -  
Max Temperature 60 °F 58 °F 75 °F (2001)
Min Temperature 48 °F 43 °F 33 °F (1965)
Degree Days  
Heating Degree Days 12    
Growing Degree Days 4 (Base 50)    
Moisture  
Dew Point 49 °F    
Average Humidity 83    
Maximum Humidity 93    
Minimum Humidity 69    
Precipitation  
Precipitation 0.00 in - - ()
Sea Level Pressure  
Sea Level Pressure 30.03 in    
Wind  
Wind Speed 4 mph (SW)    
Max Wind Speed 17 mph    
Max Gust Speed 22 mph    
Visibility 8 miles    
Events Fog    
Averages and records for this station are not official NWS values.
T = Trace of Precipitation, MM = Missing Value Source: NWS Daily Summary

Daily Weather History Graph

Daily Weather History Graph

Search for Another Location

Airport or City:

Trip Planner

Search our weather history database for the weather conditions in past years. The results will help you decide how hot, cold, wet, or windy it might be!

Date:

Astronomy

Jun. 27, 2013 Rise Set
Actual Time 4:48 AM AKDT 11:28 PM AKDT
Civil Twilight 3:13 AM AKDT 1:03 AM AKDT
Nautical Twilight Sun does not rise Sun does not rise
Astronomical Twilight Sun does not rise Sun does not rise
Moon 12:33 AM AKDT (6/27) 11:34 AM AKDT (6/27)
Length of Visible Light 21h 49m
Length of Day
18h 40m
Waning Gibbous, 75% of the Moon is Illuminated
Jun 27
Waning Gibbous
Jun 29
Last Quarter
Jul 7
New
Jul 15
First Quarter
Jul 22
Full

Hourly Weather History & Observations

Time (AKDT) Temp. Dew Point Humidity Pressure Visibility Wind Dir Wind Speed Gust Speed Precip Events Conditions
12:53 AM 55.0 °F 51.1 °F 86% 29.93 in 10.0 mi Calm Calm - N/A   Overcast
1:53 AM 53.1 °F 48.9 °F 86% 29.94 in 10.0 mi Calm Calm - N/A   Clear
2:53 AM 52.0 °F 48.9 °F 89% 29.96 in 10.0 mi North - - N/A   Clear
3:53 AM 51.1 °F 48.0 °F 89% 29.97 in 10.0 mi Calm Calm - N/A   Clear
4:53 AM 48.0 °F 45.0 °F 89% 29.98 in 6.0 mi ENE 3.5 mph - N/A   Scattered Clouds
5:00 AM 48.2 °F 46.4 °F 93% 29.98 in 2.5 mi NE 3.5 mph - N/A   Mostly Cloudy
5:10 AM 48.2 °F 46.4 °F 93% 29.98 in 3.0 mi NNE 3.5 mph - N/A   Scattered Clouds
5:32 AM 48.2 °F 46.4 °F 93% 29.99 in 1.2 mi NE 5.8 mph - N/A   Partly Cloudy
5:39 AM 48.2 °F 46.4 °F 93% 29.99 in 0.2 mi NE 6.9 mph - N/A Fog Fog
5:53 AM 48.9 °F 46.9 °F 93% 29.99 in 1.2 mi NE 4.6 mph - N/A   Mostly Cloudy
5:58 AM 48.2 °F 46.4 °F 93% 29.99 in 3.0 mi NE 3.5 mph - N/A   Overcast
6:10 AM 50.0 °F 46.4 °F 87% 30.00 in 5.0 mi NNE 3.5 mph - N/A   Scattered Clouds
6:53 AM 51.1 °F 48.0 °F 89% 30.02 in 7.0 mi Calm Calm - N/A   Overcast
7:03 AM 51.8 °F 48.2 °F 88% 30.02 in 9.0 mi Calm Calm - N/A   Overcast
7:53 AM 52.0 °F 48.9 °F 89% 30.03 in 7.0 mi Calm Calm - N/A   Overcast
8:53 AM 52.0 °F 48.9 °F 89% 30.05 in 10.0 mi Calm Calm - N/A   Overcast
9:53 AM 52.0 °F 48.9 °F 89% 30.05 in 6.0 mi Calm Calm - N/A   Overcast
10:00 AM 53.6 °F 50.0 °F 88% 30.05 in 6.0 mi Calm Calm - N/A   Overcast
10:12 AM 53.6 °F 48.2 °F 82% 30.05 in 7.0 mi SSE 4.6 mph - N/A   Overcast
10:53 AM 52.0 °F 48.9 °F 89% 30.05 in 7.0 mi SSW 3.5 mph - N/A   Overcast
11:41 AM 53.6 °F 50.0 °F 88% 30.05 in 8.0 mi SSE 3.5 mph - N/A   Overcast
11:53 AM 55.0 °F 50.0 °F 83% 30.05 in 10.0 mi Calm Calm - N/A   Overcast
12:36 PM 57.2 °F 51.8 °F 82% 30.04 in 10.0 mi South 4.6 mph - N/A   Scattered Clouds
12:53 PM 57.0 °F 50.0 °F 77% 30.04 in 10.0 mi SW 6.9 mph - N/A   Scattered Clouds
1:53 PM 57.9 °F 50.0 °F 75% 30.06 in 10.0 mi WSW 13.8 mph - N/A   Clear
2:53 PM 57.0 °F 48.9 °F 74% 30.06 in 10.0 mi WSW 17.3 mph - N/A   Mostly Cloudy
3:53 PM 57.9 °F 50.0 °F 75% 30.06 in 10.0 mi WSW 12.7 mph 19.6 mph N/A   Mostly Cloudy
4:02 PM 57.2 °F 50.0 °F 77% 30.06 in 10.0 mi WSW 13.8 mph - N/A   Mostly Cloudy
4:53 PM 57.0 °F 48.9 °F 74% 30.06 in 10.0 mi WSW 15.0 mph - N/A   Partly Cloudy
5:10 PM 55.4 °F 48.2 °F 77% 30.07 in 10.0 mi WSW 16.1 mph - N/A   Mostly Cloudy
5:27 PM 55.4 °F 48.2 °F 77% 30.07 in 10.0 mi WSW 12.7 mph - N/A   Scattered Clouds
5:53 PM 55.9 °F 48.9 °F 77% 30.07 in 9.0 mi WSW 12.7 mph 20.7 mph N/A   Scattered Clouds
6:00 PM 55.4 °F 48.2 °F 77% 30.06 in 10.0 mi WSW 15.0 mph 21.9 mph N/A   Mostly Cloudy
6:04 PM 55.4 °F 48.2 °F 77% 30.06 in 10.0 mi WSW 13.8 mph - N/A   Scattered Clouds
6:53 PM 54.0 °F 48.0 °F 80% 30.06 in 10.0 mi West 11.5 mph - N/A   Scattered Clouds
7:53 PM 59.0 °F 48.9 °F 69% 30.07 in 10.0 mi Calm Calm - N/A   Clear
8:53 PM 59.0 °F 50.0 °F 72% 30.08 in 10.0 mi Calm Calm - N/A   Clear
9:53 PM 57.9 °F 48.9 °F 72% 30.09 in 10.0 mi ENE 3.5 mph - N/A   Clear
10:53 PM 54.0 °F 48.0 °F 80% 30.10 in 10.0 mi Calm Calm - N/A   Scattered Clouds
11:53 PM 52.0 °F 48.0 °F 86% 30.11 in 10.0 mi East 3.5 mph - N/A   Clear